Date,Time,Wetness (Wet Dry or Ice),Wind Speed (m/s),Temperature (C),Humidity (%),Pressure (mb),Radiation (W/m^2)
2021-03-02,06:15:00,DRY,1.95,4.95,12.0,772.00,0.9
2021-03-02,06:20:00,DRY,1.93,4.83,12.0,772.00,1.9
2021-03-02,06:25:00,DRY,1.65,4.80,12.0,772.00,1.9
2021-03-02,06:30:00,DRY,1.90,4.83,11.7,772.00,1.4
2021-03-02,06:35:00,DRY,1.80,5.00,12.5,772.00,2.0
2021-03-02,06:40:00,DRY,1.37,4.63,13.0,772.33,1.6
2021-03-02,06:45:00,DRY,1.50,4.20,13.5,772.50,0.8
2021-03-02,06:50:00,DRY,1.33,4.70,12.0,773.00,1.3
2021-03-02,06:55:00,DRY,1.10,4.95,11.0,773.00,1.2
2021-03-02,07:00:00,DRY,1.03,5.10,10.7,773.00,1.1
2021-03-02,07:05:00,DRY,0.85,5.45,10.0,773.00,1.1
2021-03-02,07:10:00,DRY,1.00,5.27,10.3,773.00,0.3
2021-03-02,07:15:00,DRY,1.30,5.25,10.0,773.00,2.3
2021-03-02,07:20:00,DRY,1.37,5.57,10.3,773.00,2.8
2021-03-02,07:25:00,DRY,1.40,5.80,10.0,773.00,2.7
2021-03-02,07:30:00,DRY,1.03,5.83,9.3,773.00,4.1
2021-03-02,07:35:00,DRY,0.90,5.80,9.5,773.00,7.2
2021-03-02,07:40:00,DRY,0.97,5.73,9.7,773.00,9.9
2021-03-02,07:45:00,DRY,0.55,5.70,9.5,773.00,12.2
2021-03-02,07:50:00,DRY,0.73,5.70,10.0,773.00,14.8
2021-03-02,07:55:00,DRY,0.95,5.70,9.5,773.00,16.6
2021-03-02,08:00:00,DRY,1.10,5.70,10.0,773.00,18.1
2021-03-02,08:05:00,DRY,0.75,5.65,10.0,773.00,20.4
2021-03-02,08:10:00,DRY,1.30,5.60,10.0,773.00,23.1
2021-03-02,08:15:00,DRY,1.15,5.35,10.5,773.00,23.9
2021-03-02,08:20:00,DRY,1.17,5.53,10.0,773.00,25.0
2021-03-02,08:25:00,DRY,1.05,5.60,10.0,773.00,27.2
2021-03-02,08:30:00,DRY,1.40,5.67,10.7,773.33,28.6
2021-03-02,08:35:00,DRY,0.90,5.80,10.5,773.50,57.2
2021-03-02,08:40:00,DRY,1.07,6.23,10.7,773.67,281.1
2021-03-02,08:45:00,DRY,1.15,6.70,10.0,774.00,304.9
2021-03-02,08:50:00,DRY,1.37,6.90,11.0,774.00,328.2
2021-03-02,08:55:00,DRY,1.20,6.75,10.5,774.00,350.3
2021-03-02,09:00:00,DRY,1.57,6.70,10.7,774.00,374.2
2021-03-02,09:05:00,DRY,1.30,6.70,12.0,774.00,396.1
2021-03-02,09:10:00,DRY,1.87,6.53,12.0,773.33,418.9
2021-03-02,09:15:00,DRY,2.20,6.40,11.5,773.00,440.9
2021-03-02,09:20:00,DRY,1.40,6.77,10.3,773.67,462.6
2021-03-02,09:25:00,DRY,1.05,7.05,10.5,774.00,482.9
2021-03-02,09:30:00,DRY,0.77,7.33,11.0,773.67,504.1
2021-03-02,09:35:00,DRY,0.80,7.40,11.5,774.00,525.7
2021-03-02,09:40:00,DRY,1.20,7.47,12.0,774.00,546.5
2021-03-02,09:45:00,DRY,1.40,7.45,11.5,773.50,567.0
2021-03-02,09:50:00,DRY,0.70,7.33,10.0,773.67,586.6
2021-03-02,09:55:00,DRY,0.55,8.00,10.5,774.00,607.4
2021-03-02,10:00:00,DRY,0.87,7.83,12.0,774.00,625.7
2021-03-02,10:05:00,DRY,0.60,7.90,13.0,774.00,643.1
2021-03-02,10:10:00,DRY,1.23,8.23,14.0,774.00,663.0
2021-03-02,10:15:00,DRY,1.25,8.25,12.5,774.00,680.0
2021-03-02,10:20:00,DRY,0.57,8.67,13.3,774.00,698.5
2021-03-02,10:25:00,DRY,1.35,9.20,13.0,774.00,715.5
2021-03-02,10:30:00,DRY,0.83,8.87,13.7,774.00,732.0
2021-03-02,10:35:00,DRY,1.40,8.05,15.0,774.00,748.6
2021-03-02,10:40:00,DRY,1.33,7.77,15.7,774.00,763.5
2021-03-02,10:45:00,DRY,1.45,7.75,16.0,774.00,779.0
2021-03-02,10:50:00,DRY,1.73,7.93,17.7,774.00,794.0
2021-03-02,10:55:00,DRY,1.55,8.00,16.5,774.00,810.1
2021-03-02,11:00:00,DRY,1.57,8.07,16.3,774.00,823.2
2021-03-02,11:05:00,DRY,2.30,8.20,17.5,774.00,835.7
2021-03-02,11:10:00,DRY,2.33,7.63,15.7,774.00,849.4
2021-03-02,11:15:00,DRY,2.50,7.80,14.0,774.00,863.0
2021-03-02,11:20:00,DRY,1.73,7.87,14.3,774.00,874.8
2021-03-02,11:25:00,DRY,2.15,8.10,14.5,774.00,886.5
2021-03-02,11:30:00,DRY,2.10,8.17,15.0,774.00,896.7
2021-03-02,11:35:00,DRY,1.65,8.15,13.5,774.00,908.8
2021-03-02,11:40:00,DRY,1.67,8.50,14.0,774.00,920.7
2021-03-02,11:45:00,DRY,1.80,8.45,14.0,774.00,930.4
2021-03-02,11:50:00,DRY,2.50,8.27,13.3,774.00,940.8
2021-03-02,11:55:00,DRY,2.10,8.10,14.0,774.00,948.2
2021-03-02,12:00:00,DRY,3.17,8.03,15.3,774.00,954.9
2021-03-02,12:05:00,DRY,2.30,8.40,15.0,774.00,964.4
2021-03-02,12:10:00,DRY,2.90,8.17,18.0,774.00,971.8
2021-03-02,12:15:00,DRY,1.40,8.15,32.0,774.00,977.8
2021-03-02,12:20:00,DRY,2.43,8.40,24.0,774.00,983.4
2021-03-02,12:25:00,DRY,2.05,8.40,32.0,774.00,991.2
2021-03-02,12:30:00,DRY,3.03,8.17,29.0,774.00,996.7
2021-03-02,12:35:00,DRY,2.45,8.10,22.5,774.00,1001.4
2021-03-02,12:40:00,DRY,2.50,8.07,36.7,774.00,1006.5
2021-03-02,12:45:00,DRY,2.65,8.15,31.5,774.00,1012.7
2021-03-02,12:50:00,DRY,2.17,8.30,31.0,774.00,1015.8
2021-03-02,12:55:00,DRY,2.50,8.50,28.5,774.00,1019.2
2021-03-02,13:00:00,DRY,2.30,8.40,23.0,774.00,1022.6
2021-03-02,13:05:00,DRY,2.95,8.50,30.5,774.00,1026.2
2021-03-02,13:10:00,DRY,2.57,8.30,34.0,774.00,1025.3
2021-03-02,13:15:00,DRY,2.40,8.20,31.5,774.00,1029.8
2021-03-02,13:20:00,DRY,3.07,8.23,28.7,774.00,1027.9
2021-03-02,13:25:00,DRY,2.60,8.30,22.5,774.00,1027.2
2021-03-02,13:30:00,DRY,2.10,8.40,24.0,774.00,1029.2
2021-03-02,13:35:00,DRY,1.70,8.30,23.0,774.00,1027.0
2021-03-02,13:40:00,DRY,2.40,8.50,25.7,774.00,1022.4
2021-03-02,13:45:00,DRY,2.60,8.95,27.0,774.00,1020.5
2021-03-02,13:50:00,DRY,2.53,9.13,24.7,773.67,1019.0
2021-03-02,13:55:00,DRY,2.65,8.95,29.5,774.00,1014.5
2021-03-02,14:00:00,DRY,2.23,8.80,26.3,773.00,1012.1
2021-03-02,14:05:00,DRY,3.15,8.60,25.5,773.00,1007.7
2021-03-02,14:10:00,DRY,3.07,8.93,29.7,773.00,999.4
2021-03-02,14:15:00,DRY,2.80,8.65,26.0,773.00,996.1
2021-03-02,14:20:00,DRY,2.93,8.77,27.7,773.33,991.5
2021-03-02,14:25:00,DRY,2.35,9.15,29.5,773.00,984.6
2021-03-02,14:30:00,DRY,1.40,9.80,30.3,773.33,977.6
2021-03-02,14:35:00,DRY,2.05,9.55,31.0,773.50,972.4
2021-03-02,14:40:00,DRY,1.97,10.07,31.7,773.33,963.8
2021-03-02,14:45:00,DRY,3.00,9.85,30.0,773.50,950.3
2021-03-02,14:50:00,DRY,2.37,9.60,32.0,773.00,940.9
2021-03-02,14:55:00,DRY,1.05,9.55,37.0,773.00,929.2
2021-03-02,15:00:00,DRY,1.80,9.30,36.0,773.00,922.5
2021-03-02,15:05:00,DRY,1.85,9.10,37.0,773.00,907.3
2021-03-02,15:10:00,DRY,2.67,8.83,38.0,773.00,900.6
2021-03-02,15:15:00,DRY,2.65,8.65,47.5,773.00,874.6
2021-03-02,15:20:00,DRY,2.20,8.20,43.7,773.00,865.9
2021-03-02,15:25:00,DRY,1.45,8.60,44.0,773.00,870.1
2021-03-02,15:30:00,DRY,1.13,8.13,51.7,773.00,849.6
2021-03-02,15:35:00,DRY,2.10,8.00,55.0,773.00,818.4
2021-03-02,15:40:00,DRY,1.50,7.43,57.3,773.00,809.0
2021-03-02,15:45:00,DRY,1.55,6.80,55.0,773.00,826.2
2021-03-02,15:50:00,DRY,1.27,6.43,73.0,773.00,828.9
2021-03-02,15:55:00,DRY,1.55,7.25,45.5,773.00,796.5
2021-03-02,16:00:00,DRY,2.00,7.23,56.3,773.00,779.0
2021-03-02,16:05:00,DRY,2.10,7.10,45.0,773.00,763.9
2021-03-02,16:10:00,DRY,2.23,7.57,26.7,773.00,744.8
2021-03-02,16:15:00,DRY,2.75,8.10,28.5,773.00,735.4
2021-03-02,16:20:00,DRY,2.37,7.80,25.0,773.00,715.6
2021-03-02,16:25:00,DRY,3.10,7.90,22.0,773.00,703.9
2021-03-02,16:30:00,DRY,2.27,7.80,20.0,773.00,693.3
2021-03-02,16:35:00,DRY,2.05,7.90,22.0,773.00,664.9
2021-03-02,16:40:00,DRY,0.50,7.60,24.7,773.00,638.2
2021-03-02,16:45:00,DRY,2.30,7.55,30.0,773.00,574.2
2021-03-02,16:50:00,DRY,2.13,7.63,27.0,773.00,537.5
2021-03-02,16:55:00,DRY,2.05,7.35,18.5,773.00,532.5
2021-03-02,17:00:00,DRY,2.30,7.37,16.0,773.00,529.5
2021-03-02,17:05:00,DRY,2.65,7.60,12.0,774.00,530.8
2021-03-02,17:10:00,DRY,1.93,7.70,12.0,773.33,525.5
2021-03-02,17:15:00,DRY,1.60,7.65,9.5,774.00,498.8
2021-03-02,17:20:00,DRY,2.47,7.47,12.0,773.67,419.3
2021-03-02,17:25:00,DRY,2.85,7.40,14.5,774.00,306.1
2021-03-02,17:30:00,DRY,2.20,7.17,11.7,774.00,285.2
2021-03-02,17:35:00,DRY,2.30,7.15,14.0,773.50,266.7
2021-03-02,17:40:00,DRY,2.00,7.10,9.7,774.00,262.4
2021-03-02,17:45:00,DRY,2.35,7.20,9.5,774.00,236.9
2021-03-02,17:50:00,DRY,1.87,7.13,10.0,774.00,228.0
2021-03-02,17:55:00,DRY,1.00,7.45,11.5,774.00,196.5
2021-03-02,18:00:00,DRY,1.13,7.53,13.3,774.00,191.9
2021-03-02,18:05:00,DRY,1.25,7.60,12.5,774.00,257.8
2021-03-02,18:10:00,DRY,2.00,7.47,11.7,774.00,190.0
2021-03-02,18:15:00,DRY,1.90,7.20,9.5,774.00,140.8
2021-03-02,18:20:00,DRY,1.97,7.00,9.0,774.00,142.1
2021-03-02,18:25:00,DRY,2.40,6.75,10.5,774.00,111.1
2021-03-02,18:30:00,DRY,2.30,6.70,9.0,774.00,107.0
2021-03-02,18:35:00,DRY,1.95,6.85,8.5,774.00,96.0
2021-03-02,18:40:00,DRY,3.03,6.60,9.7,774.00,76.1
2021-03-02,18:45:00,DRY,2.60,6.55,8.5,774.00,45.8
2021-03-02,18:50:00,DRY,2.13,6.73,7.0,774.00,33.6
2021-03-02,18:55:00,DRY,2.90,6.65,8.0,774.00,27.9
2021-03-02,19:00:00,DRY,2.83,6.43,9.3,774.00,23.0
2021-03-02,19:05:00,DRY,2.60,6.25,10.0,774.00,15.1
2021-03-02,19:10:00,DRY,3.10,6.17,9.3,774.00,7.0
2021-03-02,19:15:00,DRY,3.25,6.30,8.5,774.00,3.7
2021-03-02,19:20:00,DRY,2.87,6.60,8.3,774.00,3.3
2021-03-02,19:25:00,DRY,2.75,6.90,8.5,774.00,1.6
2021-03-02,19:30:00,DRY,2.50,6.83,9.0,774.00,1.2
2021-03-02,19:35:00,DRY,2.55,6.80,9.5,774.00,1.0
2021-03-02,19:40:00,DRY,3.10,6.40,9.0,774.00,1.2
2021-03-02,19:45:00,DRY,3.05,6.45,8.5,774.00,1.6
2021-03-02,19:50:00,DRY,2.47,6.60,10.0,774.00,1.0
2021-03-02,19:55:00,DRY,1.80,6.75,10.0,774.00,0.3
2021-03-02,20:00:00,DRY,2.03,6.87,10.3,774.00,1.9
2021-03-02,20:05:00,DRY,2.50,6.75,11.0,774.00,0.9
2021-03-02,20:10:00,DRY,2.07,7.13,10.3,774.67,0.9
2021-03-02,20:15:00,DRY,1.70,7.35,10.0,774.00,1.3
2021-03-02,20:20:00,DRY,1.27,7.07,10.0,774.33,1.9
2021-03-02,20:25:00,DRY,1.35,7.10,11.0,774.50,1.8
2021-03-02,20:30:00,DRY,1.07,6.97,11.3,775.00,1.2
2021-03-02,20:35:00,DRY,1.40,7.00,10.0,775.00,1.6
2021-03-02,20:40:00,DRY,1.30,6.93,11.0,775.00,0.9
2021-03-02,20:45:00,DRY,2.00,7.00,10.0,775.00,0.8
2021-03-02,20:50:00,DRY,1.57,7.13,10.0,775.00,1.5
2021-03-02,20:55:00,DRY,1.80,7.10,10.0,775.00,0.3
2021-03-02,21:00:00,DRY,1.60,7.03,10.3,775.00,0.3
2021-03-02,21:05:00,DRY,1.60,6.95,10.5,775.00,1.8
2021-03-02,21:10:00,DRY,2.00,7.00,10.0,775.00,1.2
2021-03-02,21:15:00,DRY,1.65,7.20,10.0,775.00,1.4
2021-03-02,21:20:00,DRY,1.63,6.87,11.7,775.00,1.2
2021-03-02,21:25:00,DRY,1.55,6.60,11.5,775.00,1.6
2021-03-02,21:30:00,DRY,1.80,6.63,11.7,775.00,1.1
2021-03-02,21:35:00,DRY,1.95,6.80,11.0,775.00,1.1
2021-03-02,21:40:00,DRY,1.50,7.27,9.7,775.00,1.5
2021-03-02,21:45:00,DRY,1.35,7.40,9.5,775.00,0.4
2021-03-02,21:50:00,DRY,1.03,7.30,9.3,775.00,1.3
2021-03-02,21:55:00,DRY,1.10,7.40,10.0,775.00,1.0
2021-03-02,22:00:00,DRY,1.03,7.57,9.0,775.00,1.4
2021-03-02,22:05:00,DRY,1.00,7.50,9.0,775.00,1.0
2021-03-02,22:10:00,DRY,1.23,7.20,10.3,775.00,0.9
2021-03-02,22:15:00,DRY,1.10,7.55,9.0,775.00,1.2
2021-03-02,22:20:00,DRY,0.93,7.40,9.0,775.00,1.5
2021-03-02,22:25:00,DRY,1.35,7.50,9.0,775.00,2.4
2021-03-02,22:30:00,DRY,1.63,7.37,9.7,775.00,1.2
2021-03-02,22:35:00,DRY,1.75,7.30,10.0,775.00,0.3
2021-03-02,22:40:00,DRY,1.73,7.23,10.0,775.00,0.8
2021-03-02,22:45:00,DRY,1.80,7.35,10.0,775.00,2.0
2021-03-02,22:50:00,DRY,1.23,7.40,9.7,775.00,1.3
2021-03-02,22:55:00,DRY,1.00,7.35,9.5,775.00,1.1
2021-03-02,23:00:00,DRY,0.73,7.27,10.0,775.00,0.1
2021-03-02,23:05:00,DRY,0.60,7.15,10.0,775.00,0.9
2021-03-02,23:10:00,DRY,0.90,6.97,10.0,775.00,1.6
2021-03-02,23:15:00,DRY,0.60,7.10,10.0,775.00,1.9
2021-03-02,23:20:00,DRY,0.67,7.13,10.0,775.00,1.7
2021-03-02,23:25:00,DRY,1.50,7.15,11.0,775.00,0.9
2021-03-02,23:30:00,DRY,1.10,7.17,10.0,775.00,1.2
2021-03-02,23:35:00,DRY,1.30,7.20,10.0,775.00,0.7
2021-03-02,23:40:00,DRY,1.57,7.17,10.7,775.00,1.3
2021-03-02,23:45:00,DRY,1.70,7.10,10.0,775.00,1.7
2021-03-02,23:50:00,DRY,1.83,7.10,10.7,775.00,0.9
2021-03-02,23:55:00,DRY,1.75,6.95,11.5,775.00,1.2
2021-03-03,00:00:00,DRY,1.90,6.97,11.3,775.00,2.4
2021-03-03,00:05:00,DRY,2.40,7.05,11.0,775.00,1.1
2021-03-03,00:10:00,DRY,2.13,7.10,11.0,775.00,0.6
2021-03-03,00:15:00,DRY,2.35,7.30,10.0,775.00,0.7
2021-03-03,00:20:00,DRY,2.03,7.27,10.3,775.00,0.6
2021-03-03,00:25:00,DRY,2.25,7.25,10.0,775.00,1.2
2021-03-03,00:30:00,DRY,2.40,7.13,10.3,775.00,0.9
2021-03-03,00:35:00,DRY,2.10,7.20,10.0,775.00,0.4
2021-03-03,00:40:00,DRY,2.10,7.07,10.0,775.00,1.3
2021-03-03,00:45:00,DRY,2.25,7.00,10.0,775.00,0.2
2021-03-03,00:50:00,DRY,2.60,6.97,10.7,775.00,1.0
2021-03-03,00:55:00,DRY,2.55,6.55,11.0,775.00,1.5
2021-03-03,01:00:00,DRY,2.23,6.80,12.0,775.00,0.7
2021-03-03,01:05:00,DRY,2.45,6.75,10.5,775.00,1.2
2021-03-03,01:10:00,DRY,1.97,6.87,10.7,775.00,0.6
2021-03-03,01:15:00,DRY,1.45,7.20,10.0,775.00,1.1
2021-03-03,01:20:00,DRY,1.50,7.27,10.0,775.00,1.2
2021-03-03,01:25:00,DRY,1.25,7.20,10.0,775.00,2.0
2021-03-03,01:30:00,DRY,1.07,7.27,10.0,775.00,1.4
2021-03-03,01:35:00,DRY,1.50,7.25,10.0,775.00,0.7
2021-03-03,01:40:00,DRY,1.60,6.77,11.0,775.00,0.8
2021-03-03,01:45:00,DRY,1.50,7.35,10.0,775.00,1.4
2021-03-03,01:50:00,DRY,1.37,7.40,10.0,775.00,1.4
2021-03-03,01:55:00,DRY,1.35,7.30,10.0,775.00,1.7
2021-03-03,02:00:00,DRY,1.33,7.30,10.0,774.67,1.7
2021-03-03,02:05:00,DRY,1.25,7.20,10.0,774.00,1.6
2021-03-03,02:10:00,DRY,1.37,7.37,9.7,774.33,2.1
2021-03-03,02:15:00,DRY,1.40,7.15,10.5,774.00,2.0
2021-03-03,02:20:00,DRY,1.17,7.17,10.0,774.00,1.2
2021-03-03,02:25:00,DRY,1.00,7.20,10.0,774.00,0.9
2021-03-03,02:30:00,DRY,0.67,7.23,10.0,774.00,0.9
2021-03-03,02:35:00,DRY,0.50,7.10,9.5,774.00,1.2
2021-03-03,02:40:00,DRY,0.70,6.77,10.7,774.00,1.6
2021-03-03,02:45:00,DRY,1.00,7.20,9.0,774.00,0.3
2021-03-03,02:50:00,DRY,0.47,7.13,9.7,774.00,0.9
2021-03-03,02:55:00,DRY,0.55,6.90,9.5,774.00,1.2
2021-03-03,03:00:00,DRY,0.50,6.60,10.0,774.00,1.5
2021-03-03,03:05:00,DRY,0.60,6.75,10.0,774.00,0.8
2021-03-03,03:10:00,DRY,0.53,6.93,9.3,774.00,0.6
2021-03-03,03:15:00,DRY,0.65,7.00,9.5,774.00,1.1
2021-03-03,03:20:00,DRY,0.63,6.73,10.0,774.00,1.2
2021-03-03,03:25:00,DRY,0.55,6.70,10.0,774.00,1.1
2021-03-03,03:30:00,DRY,0.90,6.80,10.0,774.00,1.3
2021-03-03,03:35:00,DRY,1.05,7.00,10.0,774.00,1.5
2021-03-03,03:40:00,DRY,1.80,6.90,10.0,774.00,1.1
2021-03-03,03:45:00,DRY,1.85,7.15,10.0,774.00,2.7
2021-03-03,03:50:00,DRY,1.17,7.33,9.3,774.00,0.7
2021-03-03,03:55:00,DRY,1.10,6.90,10.0,774.00,0.8
2021-03-03,04:00:00,DRY,0.83,6.53,10.3,774.00,1.2
2021-03-03,04:05:00,DRY,0.65,6.80,10.0,774.00,1.4
2021-03-03,04:10:00,DRY,0.37,6.90,9.0,774.00,0.9
2021-03-03,04:15:00,DRY,0.15,6.75,10.0,774.00,1.1
2021-03-03,04:20:00,DRY,0.33,6.67,9.3,774.00,1.1
2021-03-03,04:25:00,DRY,0.30,6.60,9.5,774.00,1.6
2021-03-03,04:30:00,DRY,0.33,6.60,10.0,774.00,1.1
2021-03-03,04:35:00,DRY,0.60,6.50,10.5,774.00,1.1
2021-03-03,04:40:00,DRY,0.63,6.37,10.3,774.00,0.9
2021-03-03,04:45:00,DRY,0.75,6.35,10.0,774.00,0.8
2021-03-03,04:50:00,DRY,0.53,6.47,10.0,774.00,1.1
2021-03-03,04:55:00,DRY,0.75,6.50,10.0,774.00,1.6
2021-03-03,05:00:00,DRY,0.93,6.83,9.7,774.00,1.8
2021-03-03,05:05:00,DRY,0.45,6.90,9.0,774.00,1.1
2021-03-03,05:10:00,DRY,1.37,7.03,9.3,774.00,1.0
2021-03-03,05:15:00,DRY,1.70,7.25,9.5,774.00,1.1
2021-03-03,05:20:00,DRY,1.13,6.70,10.3,774.00,1.5
2021-03-03,05:25:00,DRY,0.40,6.55,10.0,774.00,1.7
2021-03-03,05:30:00,DRY,1.17,6.37,10.0,774.00,1.5
2021-03-03,05:35:00,DRY,0.85,6.25,11.0,774.00,1.2
2021-03-03,05:40:00,DRY,0.80,6.50,10.0,774.00,0.9
2021-03-03,05:45:00,DRY,0.60,6.60,10.0,774.00,1.5
2021-03-03,05:50:00,DRY,0.97,6.60,9.7,774.00,1.9
2021-03-03,05:55:00,DRY,0.90,6.65,10.0,774.00,1.8
2021-03-03,06:00:00,DRY,0.43,6.57,9.7,774.00,1.1
2021-03-03,06:05:00,DRY,0.70,6.50,10.0,774.00,1.1
2021-03-03,06:10:00,DRY,0.43,6.43,10.0,774.00,1.1
2021-03-03,06:15:00,DRY,0.25,6.40,10.0,774.00,1.1
2021-03-03,06:20:00,DRY,0.57,6.37,10.0,774.00,1.3
2021-03-03,06:25:00,DRY,0.70,6.60,10.0,774.00,0.9
2021-03-03,06:30:00,DRY,0.37,6.60,10.0,774.00,1.1
2021-03-03,06:35:00,DRY,0.70,6.70,10.0,774.00,1.0
2021-03-03,06:40:00,DRY,0.53,6.87,9.7,774.00,1.2
2021-03-03,06:45:00,DRY,1.00,6.65,10.0,774.00,1.6
2021-03-03,06:50:00,DRY,0.83,6.63,10.0,774.00,1.2
2021-03-03,06:55:00,DRY,0.95,6.50,10.0,774.00,1.6
2021-03-03,07:00:00,DRY,1.13,6.57,10.0,774.00,1.7
2021-03-03,07:05:00,DRY,1.05,6.65,10.0,774.00,0.5
2021-03-03,07:10:00,DRY,0.63,6.63,10.0,774.00,0.6
2021-03-03,07:15:00,DRY,0.70,6.60,10.0,774.00,1.1
2021-03-03,07:20:00,DRY,0.57,6.43,10.0,774.67,2.0
2021-03-03,07:25:00,DRY,0.90,6.45,11.0,774.50,3.7
2021-03-03,07:30:00,DRY,0.70,6.50,10.0,775.00,5.0
2021-03-03,07:35:00,DRY,0.45,6.40,10.0,775.00,7.1
2021-03-03,07:40:00,DRY,0.63,6.47,10.0,775.00,10.6
2021-03-03,07:45:00,DRY,0.55,6.25,10.0,775.00,12.2
2021-03-03,07:50:00,DRY,0.33,5.97,11.0,775.00,14.9
2021-03-03,07:55:00,DRY,0.40,5.65,11.0,775.00,17.0
2021-03-03,08:00:00,DRY,0.65,5.65,11.0,775.00,18.7
2021-03-03,08:05:00,DRY,0.95,5.90,11.0,775.00,20.9
2021-03-03,08:10:00,DRY,1.63,6.30,11.0,775.00,22.2
2021-03-03,08:15:00,DRY,1.30,6.40,11.0,775.00,23.1
2021-03-03,08:20:00,DRY,1.60,6.33,11.3,775.00,24.3
2021-03-03,08:25:00,DRY,1.30,6.50,12.0,775.00,26.3
2021-03-03,08:30:00,DRY,1.13,6.60,11.3,775.00,28.0
2021-03-03,08:35:00,DRY,0.80,6.65,12.5,775.00,106.6
2021-03-03,08:40:00,DRY,0.87,6.90,10.3,775.00,284.3
2021-03-03,08:45:00,DRY,1.10,7.25,10.5,775.00,313.4
2021-03-03,08:50:00,DRY,1.57,7.10,11.7,775.00,336.5
2021-03-03,08:55:00,DRY,1.75,6.90,12.5,775.00,360.1
2021-03-03,09:00:00,DRY,1.43,7.20,10.3,775.00,381.9
2021-03-03,09:05:00,DRY,1.15,7.45,10.5,775.00,404.9
2021-03-03,09:10:00,DRY,1.60,8.00,9.7,775.00,428.9
2021-03-03,09:15:00,DRY,1.65,7.85,10.5,775.00,449.9
2021-03-03,09:20:00,DRY,1.63,7.87,11.7,775.00,473.9
2021-03-03,09:25:00,DRY,0.90,7.85,11.5,775.00,495.6
2021-03-03,09:30:00,DRY,1.50,8.37,9.3,775.00,516.4
2021-03-03,09:35:00,DRY,1.70,8.45,9.0,775.00,536.8
2021-03-03,09:40:00,DRY,1.80,8.30,11.3,775.00,557.4
2021-03-03,09:45:00,DRY,1.65,8.35,11.5,775.00,579.0
2021-03-03,09:50:00,DRY,1.67,8.77,11.0,775.00,598.6
2021-03-03,09:55:00,DRY,1.40,8.90,8.0,775.00,618.5
2021-03-03,10:00:00,DRY,1.20,8.97,9.7,775.00,639.1
2021-03-03,10:05:00,DRY,2.35,8.90,10.0,775.00,657.9
2021-03-03,10:10:00,DRY,1.53,8.53,11.0,775.00,676.4
2021-03-03,10:15:00,DRY,1.65,8.65,13.0,775.00,693.0
2021-03-03,10:20:00,DRY,1.60,8.93,12.3,775.00,712.9
2021-03-03,10:25:00,DRY,1.55,9.05,12.5,775.00,730.1
2021-03-03,10:30:00,DRY,2.00,9.00,12.0,775.00,747.1
2021-03-03,10:35:00,DRY,1.45,8.95,11.5,775.00,764.2
2021-03-03,10:40:00,DRY,1.97,9.20,12.3,775.00,780.3
2021-03-03,10:45:00,DRY,1.45,9.50,12.0,775.00,795.4
2021-03-03,10:50:00,DRY,1.87,9.60,11.3,775.00,810.6
2021-03-03,10:55:00,DRY,1.30,9.65,13.0,775.00,826.1
2021-03-03,11:00:00,DRY,1.63,9.57,13.7,775.00,840.8
2021-03-03,11:05:00,DRY,1.45,10.00,12.0,775.00,854.5
2021-03-03,11:10:00,DRY,1.53,10.07,14.7,775.00,868.3
2021-03-03,11:15:00,DRY,2.50,10.00,15.0,775.00,880.0
2021-03-03,11:20:00,DRY,2.33,9.77,15.0,775.00,893.7
2021-03-03,11:25:00,DRY,2.00,9.30,18.0,775.00,903.5
2021-03-03,11:30:00,DRY,1.40,9.40,17.0,775.00,916.0
2021-03-03,11:35:00,DRY,0.85,9.75,18.0,775.00,925.4
2021-03-03,11:40:00,DRY,1.17,10.17,19.0,775.00,935.8
2021-03-03,11:45:00,DRY,1.55,10.10,17.0,775.00,946.8
2021-03-03,11:50:00,DRY,1.80,9.60,16.3,775.00,955.7
2021-03-03,11:55:00,DRY,1.35,9.15,17.0,775.00,966.3
2021-03-03,12:00:00,DRY,1.30,9.50,17.7,775.00,973.8
2021-03-03,12:05:00,DRY,1.40,9.75,20.5,775.00,981.7
2021-03-03,12:10:00,DRY,2.53,9.83,19.7,775.00,991.3
2021-03-03,12:15:00,DRY,2.35,9.05,15.0,775.00,996.5
2021-03-03,12:20:00,DRY,2.17,9.37,15.3,775.00,1004.9
2021-03-03,12:25:00,DRY,2.10,9.40,22.0,775.00,1008.5
2021-03-03,12:30:00,DRY,2.03,9.60,22.7,775.00,1015.4
2021-03-03,12:35:00,DRY,2.10,10.05,21.5,775.00,1019.6
2021-03-03,12:40:00,DRY,2.10,10.23,19.3,775.00,1024.1
2021-03-03,12:45:00,DRY,2.00,10.00,21.5,775.00,1029.8
2021-03-03,12:50:00,DRY,2.07,9.70,20.7,775.00,1033.4
2021-03-03,12:55:00,DRY,1.95,9.60,18.0,775.00,1036.8
2021-03-03,13:00:00,DRY,2.60,10.30,18.3,775.00,1041.1
2021-03-03,13:05:00,DRY,1.60,10.05,12.0,775.00,1039.2
2021-03-03,13:10:00,DRY,2.30,9.67,18.7,775.00,1041.3
2021-03-03,13:15:00,DRY,1.75,9.80,12.5,775.00,1039.4
2021-03-03,13:20:00,DRY,1.87,10.27,13.0,775.00,1043.0
2021-03-03,13:25:00,DRY,1.30,10.15,11.0,775.00,1042.2
2021-03-03,13:30:00,DRY,1.40,10.20,9.0,775.00,1044.8
2021-03-03,13:35:00,DRY,2.30,10.20,12.0,775.00,1041.6
2021-03-03,13:40:00,DRY,2.13,9.83,12.3,775.00,1039.1
2021-03-03,13:45:00,DRY,2.25,10.00,14.5,775.00,1037.8
2021-03-03,13:50:00,DRY,1.00,9.73,11.3,775.00,1033.1
2021-03-03,13:55:00,DRY,1.95,9.75,18.0,775.00,1028.2
2021-03-03,14:00:00,DRY,2.00,10.07,16.3,775.00,1025.1
2021-03-03,14:05:00,DRY,2.55,9.95,20.0,775.00,1021.2
2021-03-03,14:10:00,DRY,2.50,9.80,16.0,775.00,1015.9
2021-03-03,14:15:00,DRY,2.60,9.80,18.0,775.00,1011.4
2021-03-03,14:20:00,DRY,2.10,9.80,16.0,775.00,1006.1
2021-03-03,14:25:00,DRY,1.45,10.25,11.0,775.00,1002.6
2021-03-03,14:30:00,DRY,1.90,10.30,10.7,775.00,995.1
2021-03-03,14:35:00,DRY,1.70,10.25,13.5,775.00,986.3
2021-03-03,14:40:00,DRY,1.90,9.70,10.3,775.00,978.8
2021-03-03,14:45:00,DRY,1.90,10.10,13.5,775.00,968.8
2021-03-03,14:50:00,DRY,2.43,9.53,22.7,775.00,960.3
2021-03-03,14:55:00,DRY,2.00,9.35,26.5,774.50,950.0
2021-03-03,15:00:00,DRY,2.43,9.13,18.7,775.00,941.1
2021-03-03,15:05:00,DRY,2.55,8.75,24.0,775.00,927.8
2021-03-03,15:10:00,DRY,1.33,8.93,26.7,775.00,917.7
2021-03-03,15:15:00,DRY,1.00,9.30,13.0,775.00,905.2
2021-03-03,15:20:00,DRY,1.93,9.87,15.3,775.00,895.5
2021-03-03,15:25:00,DRY,1.65,9.90,19.0,774.50,883.8
2021-03-03,15:30:00,DRY,1.67,9.60,18.3,774.00,870.6
2021-03-03,15:35:00,DRY,1.85,9.60,16.0,774.50,857.5
2021-03-03,15:40:00,DRY,0.83,9.87,14.3,774.00,845.5
2021-03-03,15:45:00,DRY,1.05,9.85,8.5,774.50,832.2
2021-03-03,15:50:00,DRY,1.97,9.77,10.7,774.00,816.6
2021-03-03,15:55:00,DRY,2.75,9.50,9.5,774.00,800.7
2021-03-03,16:00:00,DRY,1.73,9.40,12.0,774.33,785.3
2021-03-03,16:05:00,DRY,1.75,9.10,9.0,774.00,768.2
2021-03-03,16:10:00,DRY,2.07,9.37,10.7,774.33,752.3
2021-03-03,16:15:00,DRY,2.15,9.45,11.5,774.00,735.2
2021-03-03,16:20:00,DRY,1.77,9.40,12.7,774.00,717.4
2021-03-03,16:25:00,DRY,1.50,9.25,9.0,774.00,699.3
2021-03-03,16:30:00,DRY,1.57,9.13,12.7,774.00,681.7
2021-03-03,16:35:00,DRY,1.70,9.35,13.0,775.00,660.9
2021-03-03,16:40:00,DRY,1.77,9.30,12.0,774.00,643.4
2021-03-03,16:45:00,DRY,1.85,9.25,10.0,774.00,623.6
2021-03-03,16:50:00,DRY,1.73,9.20,11.7,774.33,603.9
2021-03-03,16:55:00,DRY,1.35,9.10,10.0,774.00,584.4
2021-03-03,17:00:00,DRY,1.33,9.03,12.0,774.00,563.8
2021-03-03,17:05:00,DRY,1.40,9.00,12.0,774.00,542.9
2021-03-03,17:10:00,DRY,1.97,8.80,14.3,774.00,522.1
2021-03-03,17:15:00,DRY,1.30,8.45,16.5,774.00,499.4
2021-03-03,17:20:00,DRY,0.43,9.07,14.0,774.00,477.9
2021-03-03,17:25:00,DRY,1.60,8.95,13.0,774.00,456.9
2021-03-03,17:30:00,DRY,1.73,8.70,13.7,774.00,432.9
2021-03-03,17:35:00,DRY,1.45,8.50,14.0,774.00,410.9
2021-03-03,17:40:00,DRY,1.27,8.37,13.3,774.00,387.8
2021-03-03,17:45:00,DRY,1.50,8.40,13.0,774.00,363.4
2021-03-03,17:50:00,DRY,1.83,8.27,14.3,774.00,341.2
2021-03-03,17:55:00,DRY,1.55,7.95,14.5,774.00,318.6
2021-03-03,18:00:00,DRY,1.60,8.00,13.0,774.00,294.8
2021-03-03,18:05:00,DRY,1.90,7.85,12.0,774.00,271.3
2021-03-03,18:10:00,DRY,1.90,7.63,13.3,774.00,249.7
2021-03-03,18:15:00,DRY,1.45,7.50,13.0,774.00,226.3
2021-03-03,18:20:00,DRY,0.67,7.83,12.0,774.00,204.8
2021-03-03,18:25:00,DRY,1.65,8.10,9.5,774.00,183.6
2021-03-03,18:30:00,DRY,1.23,7.90,11.0,774.33,163.0
2021-03-03,18:35:00,DRY,1.80,7.50,11.0,775.00,138.2
2021-03-03,18:40:00,DRY,1.37,7.27,11.3,774.00,100.3
2021-03-03,18:45:00,DRY,1.50,7.30,11.0,774.50,24.6
2021-03-03,18:50:00,DRY,1.57,7.20,11.3,774.00,20.5
2021-03-03,18:55:00,DRY,1.65,7.25,9.5,774.00,17.9
2021-03-03,19:00:00,DRY,1.50,7.20,10.0,775.00,21.2
2021-03-03,19:05:00,DRY,1.75,7.25,9.0,775.00,16.6
2021-03-03,19:10:00,DRY,2.00,7.00,10.3,775.00,12.6
2021-03-03,19:15:00,DRY,2.10,6.75,10.5,775.00,7.2
2021-03-03,19:20:00,DRY,1.80,6.60,11.7,775.00,4.6
2021-03-03,19:25:00,DRY,1.70,6.55,12.0,775.00,4.3
2021-03-03,19:30:00,DRY,1.80,6.40,12.0,775.00,1.6
2021-03-03,19:35:00,DRY,1.90,6.30,12.0,775.00,1.6
2021-03-03,19:40:00,DRY,1.87,6.30,10.7,775.00,1.1
2021-03-03,19:45:00,DRY,2.15,6.35,11.0,775.00,0.7
2021-03-03,19:50:00,DRY,2.10,6.23,12.0,775.00,1.0
2021-03-03,19:55:00,DRY,1.45,6.30,11.0,775.00,1.5
2021-03-03,20:00:00,DRY,1.80,6.43,10.0,775.00,1.4
2021-03-03,20:05:00,DRY,2.10,6.45,10.0,775.00,0.4
2021-03-03,20:10:00,DRY,2.30,6.40,10.3,775.00,1.6
2021-03-03,20:15:00,DRY,2.50,6.05,12.0,775.00,0.9
2021-03-03,20:20:00,DRY,2.87,6.00,12.3,775.00,1.1
2021-03-03,20:25:00,DRY,2.85,6.05,12.0,775.00,1.2
2021-03-03,20:30:00,DRY,2.63,6.10,12.7,775.00,1.6
2021-03-03,20:35:00,DRY,3.45,6.10,12.0,775.00,0.9
2021-03-03,20:40:00,DRY,3.23,5.97,13.0,775.00,1.1
2021-03-03,20:45:00,DRY,2.80,6.05,12.5,775.00,1.1
2021-03-03,20:50:00,DRY,2.83,6.03,11.3,775.00,1.0
2021-03-03,20:55:00,DRY,2.75,6.05,10.5,775.00,1.6
2021-03-03,21:00:00,DRY,2.97,6.03,11.7,775.00,1.5
2021-03-03,21:05:00,DRY,3.00,5.95,12.0,775.00,1.3